Dewpoint
71 72 73 75 75 75 75 74 74 74 74 74 74 74 74 73 74 74 74 76 77 77 77 77 76 76 76 75 75 75 76 76 75 75 75 76 76 75 75 75 75 76 75 74 75 75 75 76 75 75 75 75 75 75 75 76 75 75 75 75 74 75 75 75 75 75 74 74 74 75 75 75 75 75 74 74 75 74 75 75 75 73 74 74 74
71 72 73 74 75 75 75 75 74 74 73 73 73 73 73 74 73 74 75 75 76 77 77 77 76 75 75 75 75 75 75 75 75 75 76 75 75 75 75 75 74 75 75 75 74 75 76 76 76 75 75 75 75 75 75 75 75 75 75 75 75 75 74 75 75 75 75 75 75 75 75 75 75 75 75 74 74 75 75 75 75 74 74 74 74
72 73 73 75 75 75 75 75 75 74 74 73 73 73 74 73 74 74 76 76 76 76 77 77 76 75 75 75 75 75 75 75 75 75 75 75 75 75 74 75 75 74 74 75 74 75 75 75 75 75 75 75 75 75 75 75 75 75 75 76 75 75 74 74 75 75 75 74 75 75 76 75 75 75 75 75 75 75 75 74 75 74 72 74 74
72 73 74 75 75 76 75 75 75 75 74 74 74 74 74 74 75 76 76 76 76 76 77 77 77 75 75 75 75 75 75 75 75 75 75 75 75 74 75 75 75 76 75 76 76 75 75 75 75 75 76 76 76 74 75 75 75 75 75 75 75 75 74 75 75 75 75 75 75 76 75 75 74 75 75 75 75 75 75 74 74 74 74 74 74
73 74 74 75 76 75 75 75 76 76 76 75 75 75 75 75 76 76 76 76 76 76 76 77 77 77 76 75 75 75 75 75 75 75 75 75 75 75 75 75 75 75 76 76 76 76 76 75 75 75 76 75 76 74 75 75 75 75 75 75 75 75 74 75 75 74 75 76 76 75 74 74 75 75 75 75 75 75 74 74 74 74 74 74 74
73 74 75 76 75 76 76 75 75 76 76 76 75 75 75 75 76 76 76 76 76 76 76 76 76 76 76 76 76 76 76 75 75 75 75 75 75 75 74 76 76 76 75 75 76 76 75 76 76 75 75 75 75 76 76 75 75 75 74 74 74 74 74 74 75 75 76 76 75 74 74 74 74 73 74 74 74 74 74 74 74 74 74 74 74
74 75 75 75 75 75 76 76 76 75 75 75 75 75 76 76 76 76 76 76 76 76 76 76 76 76 75 76 76 76 76 75 75 75 75 74 75 75 75 76 76 76 75 75 75 74 75 75 75 75 75 75 76 75 75 75 74 74 75 75 75 75 75 75 76 76 76 74 74 74 74 74 74 74 73 74 74 74 74 74 74 74 74 74 74
74 75 75 75 75 76 76 76 76 76 75 75 75 75 75 76 76 76 75 75 75 75 75 75 75 75 75 75 76 76 75 75 75 75 75 75 75 75 75 75 76 75 75 75 75 74 72 74 75 76 75 76 75 75 75 74 73 74 74 75 75 75 75 75 75 75 75 74 74 74 74 74 74 73 74 75 74 74 74 74 73 73 73 74 74
74 74 75 75 75 76 76 76 76 76 76 76 76 76 76 76 76 76 76 75 76 76 75 75 75 75 76 75 75 75 75 75 76 75 75 75 75 75 75 75 75 75 75 75 75 74 74 73 75 76 76 76 75 75 74 74 73 74 75 75 75 75 75 75 75 75 74 74 74 74 74 74 73 73 74 74 74 74 75 74 75 74 74 75 75
74 74 75 75 75 76 76 76 76 76 76 76 76 76 76 76 75 75 76 75 75 76 75 75 75 75 75 76 76 75 75 75 76 76 75 75 75 75 75 74 75 74 75 75 75 75 74 74 75 75 76 76 75 75 75 75 74 74 74 75 75 75 75 75 75 75 74 74 74 75 75 74 73 73 73 74 74 74 74 74 74 74 74 74 75
74 74 74 74 75 76 76 76 76 76 76 75 76 76 76 75 75 75 76 75 75 75 75 75 75 75 75 75 75 75 75 75 75 76 75 75 74 74 75 75 75 75 75 75 74 75 74 75 75 75 76 76 75 75 75 75 75 74 74 74 75 75 75 75 75 73 74 74 74 74 74 75 74 74 74 73 73 74 74 74 74 74 74 74 74
74 74 74 74 77 76 76 76 75 75 76 75 76 76 75 75 75 75 75 75 74 75 75 75 75 76 75 75 75 75 75 75 75 76 75 75 73 74 75 75 75 74 75 74 74 74 74 74 75 75 75 75 74 75 74 74 74 74 74 74 75 75 75 75 73 73 73 73 74 74 73 73 74 73 74 74 74 73 74 74 74 74 73 73 74
73 74 74 75 76 76 76 76 75 75 75 75 75 75 75 74 73 74 74 75 74 74 74 75 75 75 75 75 75 75 75 75 75 74 75 74 73 75 75 75 75 74 74 74 74 74 73 75 75 75 75 75 75 74 74 74 74 74 75 75 75 75 75 75 73 73 73 73 74 74 74 75 74 75 75 74 74 74 74 74 73 73 73 73 73
73 74 75 75 76 76 76 75 75 75 75 75 75 75 74 73 73 74 74 74 74 74 74 74 74 75 74 75 75 75 75 75 75 75 75 74 73 74 74 74 74 74 74 75 74 74 74 75 75 75 75 75 75 75 74 74 75 74 74 74 75 75 75 75 74 73 74 74 75 73 74 75 75 75 74 74 74 74 74 73 73 73 73 72 72
74 75 75 75 75 75 75 75 75 75 75 75 75 74 73 72 73 73 74 74 74 74 74 74 74 75 75 75 75 74 74 74 75 75 75 75 74 74 74 74 74 74 75 75 75 74 75 75 75 75 75 76 75 75 75 75 74 74 74 75 75 75 75 73 72 73 74 74 74 73 74 75 74 74 73 73 73 73 73 74 74 74 74 73 72
75 75 75 75 75 75 75 75 75 75 75 75 74 73 73 72 73 73 74 74 74 73 74 74 74 74 74 75 75 75 75 74 75 75 75 75 74 74 75 75 75 75 75 75 75 75 75 75 75 75 74 74 75 75 74 74 74 73 74 74 75 75 75 74 73 73 73 73 74 75 74 75 74 74 73 73 73 73 73 73 73 73 73 73 73
75 75 75 75 75 74 75 76 75 75 74 74 72 73 74 74 74 74 74 74 73 74 74 74 74 74 74 74 74 74 74 74 75 75 75 75 74 74 75 75 75 75 75 75 75 75 75 75 75 75 74 74 74 74 74 74 74 74 74 74 75 75 75 74 72 72 73 74 74 74 75 76 73 73 73 73 73 73 73 73 73 73 73 73 74
75 74 74 74 74 75 75 75 75 75 75 74 73 73 74 73 73 74 74 73 73 74 74 74 74 74 74 74 74 74 74 75 75 75 74 74 74 75 75 75 75 75 75 75 75 75 75 74 74 74 74 74 74 74 74 74 74 73 74 74 74 75 75 74 72 73 74 74 74 75 75 73 73 73 73 73 73 73 73 72 72 73 73 73 73
74 74 74 74 74 74 74 74 75 74 74 73 73 73 73 73 72 73 73 73 74 74 73 74 74 74 74 74 74 73 74 75 75 75 74 74 75 75 75 75 75 75 75 75 75 75 75 75 76 75 75 75 75 74 74 74 74 74 73 73 74 75 75 74 72 73 75 74 74 74 74 73 72 73 73 73 73 72 72 71 71 72 71 71 72
74 73 73 74 74 73 73 73 74 74 74 74 72 73 74 73 73 73 73 73 73 73 73 74 74 74 74 73 73 74 74 74 75 75 74 75 75 75 75 75 75 75 75 75 75 75 75 75 75 75 75 75 74 74 74 73 73 74 73 73 74 74 74 72 72 73 73 73 74 73 76 73 73 73 73 72 71 71 71 71 71 71 71 71 71
73 73 73 73 73 73 73 73 74 73 74 74 72 73 73 73 74 74 73 74 73 73 74 74 74 74 74 73 74 73 74 75 76 75 75 75 75 74 74 75 74 75 75 75 75 75 75 75 75 75 75 74 75 76 75 75 75 74 74 74 74 75 72 72 72 73 73 74 75 73 75 73 73 73 72 71 71 71 70 70 70 70 70 70 71
72 72 73 73 73 73 73 73 73 73 74 74 73 72 72 72 72 72 73 74 73 73 74 74 74 74 73 74 74 74 73 73 75 75 76 75 74 74 74 74 74 74 74 75 75 75 75 76 75 75 75 76 76 74 75 76 76 76 75 75 73 72 72 72 73 73 73 73 74 74 74 73 73 72 72 72 72 71 72 71 71 71 72 71 70
71 72 73 73 73 73 73 73 73 73 74 74 73 72 72 72 71 72 73 73 73 73 73 72 72 72 73 74 74 73 73 74 74 75 76 75 75 74 74 74 74 73 74 74 75 75 76 76 75 76 77 76 75 74 74 74 75 76 75 74 72 72 72 72 72 73 73 73 74 74 74 74 73 73 72 72 72 71 72 72 72 72 72 72 71
71 72 72 73 73 73 73 73 73 73 73 73 73 72 72 72 71 72 73 72 72 72 72 72 72 72 73 73 73 74 74 74 74 75 76 74 75 74 74 74 74 74 75 76 77 77 77 76 75 75 76 75 74 74 75 74 75 74 73 74 73 71 71 72 72 73 73 73 74 74 74 74 73 73 72 72 72 71 72 72 73 73 72 73 72
71 72 73 73 73 73 73 73 73 73 73 74 72 72 71 71 71 71 71 72 71 71 72 71 71 72 73 73 73 74 74 74 74 74 74 74 74 73 73 74 74 76 77 74 74 74 74 73 73 74 73 74 74 74 74 74 75 74 74 73 74 72 70 72 72 72 73 73 74 74 75 74 74 73 73 72 73 72 72 72 72 72 72 73 72
72 72 72 73 73 73 73 73 73 73 73 73 73 73 71 70 70 71 71 71 71 71 71 72 72 73 73 73 74 73 73 73 73 73 74 73 73 73 73 73 74 74 75 73 73 73 73 73 73 73 73 73 73 73 73 75 73 73 74 74 73 74 71 71 71 72 72 73 74 74 75 74 74 74 73 73 73 73 72 72 72 72 72 72 72
71 71 72 72 73 73 73 73 73 73 73 73 73 72 71 71 71 71 71 71 72 71 71 72 72 73 73 74 73 73 73 73 73 73 73 73 73 73 73 73 73 73 74 73 73 73 73 73 73 73 73 73 73 73 73 73 73 73 73 73 73 72 71 71 71 72 72 73 74 75 75 75 74 74 74 74 73 73 73 73 72 73 73 72 73
71 71 72 72 73 73 73 73 73 73 73 73 72 72 72 72 72 71 72 72 73 72 72 73 72 73 73 74 74 73 73 73 73 73 73 73 73 73 73 73 73 73 74 74 73 73 72 72 73 73 73 73 73 73 73 73 73 73 72 73 73 72 71 71 71 71 72 72 73 74 75 75 75 75 74 75 74 73 74 73 73 73 73 73 74
71 71 72 72 73 73 73 73 74 73 74 73 72 72 72 72 72 72 72 73 72 72 73 72 73 74 74 74 74 73 73 73 73 73 73 73 73 73 73 73 73 73 74 73 74 73 73 72 73 73 73 73 73 73 73 73 73 73 72 72 72 72 71 70 71 71 71 72 72 73 75 75 75 75 75 75 75 74 74 74 74 74 74 74 74
70 71 72 72 73 73 73 73 74 73 74 73 72 72 72 73 72 72 72 73 72 73 73 73 73 73 73 74 74 73 73 72 73 73 73 73 72 72 73 73 73 73 73 73 73 73 73 73 73 73 72 73 73 73 74 73 72 72 72 71 71 70 71 70 70 71 71 72 72 73 75 75 76 75 75 75 75 75 75 75 75 75 75 75 75
71 71 72 72 73 73 73 74 74 75 74 73 73 72 73 73 73 72 73 72 72 73 73 73 73 73 74 74 74 74 73 73 73 72 72 72 72 72 72 72 72 72 73 73 73 74 74 73 73 73 73 73 73 73 73 73 72 72 70 70 69 69 69 70 70 70 70 72 72 73 73 75 76 76 76 76 76 76 75 76 75 76 76 76 76
70 71 72 72 73 73 73 74 74 74 74 73 74 73 73 73 73 73 72 72 73 73 73 73 74 73 74 73 74 74 75 73 73 73 72 72 72 72 72 72 72 72 73 73 73 73 74 74 74 74 74 74 73 73 74 73 72 71 69 66 66 67 68 70 69 69 70 71 72 72 73 73 75 76 76 76 76 76 76 76 76 76 76 76 76
70 71 72 72 72 72 73 74 74 74 73 73 73 73 73 73 73 73 73 73 73 73 73 73 73 73 73 73 73 74 75 73 73 74 75 72 72 72 72 73 73 72 72 73 73 74 73 73 73 73 74 74 74 74 74 73 71 71 69 66 65 67 69 70 71 70 70 70 71 72 72 73 74 74 76 77 76 76 76 76 76 76 76 76 77
70 71 71 71 72 72 73 73 74 73 73 73 73 73 73 73 74 73 74 73 73 73 73 73 74 74 74 73 73 74 73 73 72 72 73 72 72 72 72 72 72 72 73 73 73 73 73 74 74 75 75 76 73 74 74 73 71 70 69 66 65 67 69 69 70 70 70 69 70 71 72 72 73 74 74 76 77 77 77 77 77 77 77 77 77
70 70 71 71 72 72 73 73 74 73 73 73 73 72 73 74 73 73 73 73 73 72 73 73 74 74 74 73 73 74 74 72 72 72 72 72 72 72 72 72 72 73 72 73 74 75 74 74 76 75 74 73 74 74 74 73 71 71 69 68 64 64 68 69 70 70 70 70 70 70 71 72 72 73 74 74 75 76 77 78 78 77 77 77 77
69 70 71 71 71 71 73 72 73 72 72 72 72 73 73 73 73 74 73 74 73 72 72 73 73 74 74 73 73 73 74 73 72 72 72 72 72 71 72 72 72 73 73 75 76 75 74 74 75 75 73 72 75 73 73 73 72 72 69 68 67 68 66 67 69 69 69 71 70 70 70 71 72 72 74 73 74 74 75 77 78 78 78 78 78
69 69 70 71 71 72 73 72 72 72 72 72 71 72 73 73 73 73 73 73 72 72 72 73 73 73 74 74 74 73 74 73 73 73 72 71 71 71 71 72 73 75 75 75 75 76 74 73 74 76 75 74 73 72 73 73 72 72 68 64 63 69 66 68 67 69 70 71 71 69 69 69 71 73 74 73 74 74 74 74 75 77 78 78 78
68 69 70 70 70 71 72 72 72 71 71 71 71 72 72 72 73 73 74 73 72 72 72 73 73 73 73 73 74 74 75 74 74 73 72 72 71 71 71 73 76 75 74 74 75 75 75 74 74 74 75 74 73 73 72 72 71 71 70 63 68 69 68 67 67 70 71 71 71 70 69 68 68 68 70 71 71 72 72 72 73 73 74 75 77
68 69 70 70 70 71 71 72 71 70 70 71 71 72 72 72 72 72 73 72 72 72 72 72 72 73 72 73 74 74 76 74 74 74 73 73 73 72 72 75 76 74 74 73 73 75 76 74 74 75 75 75 74 74 73 73 71 69 68 64 66 69 69 66 69 69 69 68 69 70 68 69 68 68 70 70 70 71 72 72 71 71 71 71 72
68 69 70 70 70 71 71 71 70 70 70 71 71 71 71 72 71 71 71 72 71 72 72 72 72 72 73 73 74 74 74 75 74 74 74 74 73 73 74 75 75 74 73 72 73 75 76 75 74 75 75 74 75 74 72 69 68 65 68 66 66 67 68 69 68 66 68 67 68 71 69 69 70 69 69 69 70 69 71 72 73 72 71 71 72
69 69 69 69 69 70 70 70 69 70 70 70 71 71 70 70 70 70 70 70 71 71 72 72 72 72 73 74 74 74 74 76 76 75 74 75 74 75 75 76 76 74 74 73 74 76 77 76 76 75 75 73 72 73 72 67 65 67 67 64 66 68 70 74 69 68 66 66 66 69 70 71 71 70 72 71 72 72 72 73 72 72 72 72 71
68 69 69 69 69 70 69 70 69 70 70 70 71 71 70 70 69 70 69 70 71 71 70 71 72 72 74 74 74 74 75 76 77 75 75 75 74 75 75 75 76 74 75 76 77 77 75 75 74 73 73 73 72 72 73 66 67 64 65 63 65 64 69 70 67 64 64 64 64 66 67 67 68 68 70 72 73 72 73 74 74 73 74 73 72
68 69 69 69 69 69 69 70 69 69 70 70 71 71 70 71 70 70 69 69 70 71 70 71 73 72 73 74 74 74 74 76 76 76 75 75 75 75 75 75 75 78 75 74 73 74 75 75 74 73 72 72 74 75 75 69 67 67 66 65 62 61 68 66 67 65 62 62 63 62 63 63 64 67 70 70 71 71 71 72 74 74 74 74 73
68 68 69 69 69 70 69 69 69 69 70 71 72 71 71 71 70 70 70 69 69 71 71 72 72 72 72 73 74 74 74 75 76 76 75 75 75 75 75 75 75 77 75 74 73 74 75 75 73 75 72 70 70 71 75 73 70 63 65 61 60 59 60 63 63 65 66 66 61 60 61 61 62 64 69 68 66 69 70 71 72 74 74 74 74
67 68 68 68 68 69 69 69 69 69 70 72 72 71 72 71 70 70 70 70 70 70 70 70 72 72 72 72 73 74 74 74 76 76 76 75 75 75 75 75 76 76 75 74 74 75 75 74 74 75 73 71 70 71 72 73 72 69 67 65 64 62 60 62 59 67 63 64 62 62 63 62 61 65 67 66 67 68 66 67 72 73 74 74 74
66 67 68 68 68 69 69 69 69 69 70 71 72 72 72 70 69 68 67 67 67 68 68 69 70 71 71 72 73 73 74 74 75 75 76 75 75 75 75 75 76 76 77 75 74 74 74 74 73 74 73 74 73 71 70 73 74 75 71 66 68 66 64 65 60 64 67 69 66 63 62 61 62 65 68 66 65 65 69 67 70 71 71 72 72
65 66 67 68 68 68 69 69 69 69 70 71 72 72 71 70 69 68 67 67 67 67 69 70 70 71 72 72 72 73 74 74 74 75 75 77 75 75 75 75 75 75 77 76 75 74 74 74 77 75 75 76 73 72 71 71 73 73 71 70 72 73 65 65 63 64 63 68 65 64 61 62 62 59 60 60 63 64 66 67 66 66 68 69 70
64 65 66 67 68 69 69 69 69 70 70 71 72 72 71 70 69 68 68 67 66 67 68 70 71 72 72 72 72 73 73 74 74 74 75 76 76 75 75 75 76 75 77 77 76 75 75 75 76 77 76 76 74 73 71 71 71 70 73 70 70 70 68 67 66 63 61 62 64 65 63 63 62 63 67 64 60 61 63 68 66 65 67 68 70
64 64 65 66 67 68 69 69 69 70 70 71 72 72 72 70 70 68 68 68 67 67 69 71 71 73 71 71 72 72 73 74 74 73 75 75 77 76 75 75 75 75 77 77 76 76 75 74 75 75 74 73 75 75 73 73 72 71 70 71 69 68 66 67 68 69 67 63 64 64 66 65 64 65 67 66 65 65 65 66 67 69 73 73 73
64 65 65 66 67 68 69 69 69 70 70 71 72 72 71 72 70 69 68 68 68 69 69 70 71 71 71 71 72 72 72 73 73 73 74 75 76 76 75 75 75 74 76 76 75 76 75 75 75 74 75 75 75 76 75 74 73 73 70 70 70 70 69 68 65 67 65 65 63 63 65 64 66 68 69 67 68 67 66 67 66 65 69 72 73
64 64 64 66 67 68 68 69 69 70 71 71 72 71 71 71 70 70 69 68 68 68 69 69 70 71 70 70 72 72 72 72 73 74 73 74 75 76 75 74 75 76 77 76 75 75 74 74 75 76 76 75 75 76 75 75 74 74 72 71 69 67 66 65 66 67 64 65 66 63 65 68 65 65 69 68 73 67 67 68 66 66 72 72 75